Location: Red Deer
(52.2681°N, 113.8112°W)
Time: 23:58:15
(UTC-06:00)

QB50P2 - Pass Details

Date: 25 May 2022
Orbit: 589 x 607 km, 97.9° (Epoch: 27 June)

Event Time Altitude Azimuth Distance (km) Brightness Sun altitude
Rises 02:00:41 0° 25° (NNE) 2,838 ? -16.5°
Reaches altitude 10° 02:03:21 10° 43° (NE) 1,929 ? -16.4°
Maximum altitude 02:06:27 20° 91° (E) 1,385 ? -16.4°
Enters shadow 02:08:51 13° 132° (SE) 1,722 ? -16.3°
